When you browse on this site, cookies collect data to enhance your experience and personalize the content and advertising you see.
Visit our Privacy Policy to learn more. By continuing to use the site, you agree to this use of cookies and data.
  • Em Portugal
  • Lista de países
  • Para 7 dias
  • Temperatura da água
  • Mapas de satélite
  • Mapa do tempo
  • Widgets de tempo
  • user-avatar
    Iniciar Sessão

    Previsão horária em Uida

    Hoje, 18 Fevereiro, Segunda-feira

    Tempo Temperatura Precipitação Vento Pressão Humidade
    00:00 +29°C° 0 mm 3 m/s 757 mmHg 84%
    01:00 +29°C° 0 mm 3 m/s 757 mmHg 85%
    02:00 +29°C° 0 mm 3 m/s 756 mmHg 86%
    03:00 +29°C° 0 mm 3 m/s 756 mmHg 87%
    04:00 +28°C° 0 mm 2 m/s 756 mmHg 88%
    05:00 +28°C° 0 mm 2 m/s 756 mmHg 88%
    06:00 +28°C° 0 mm 2 m/s 756 mmHg 88%
    07:00 +30°C° 0 mm 2 m/s 757 mmHg 78%
    08:00 +32°C° 0 mm 2 m/s 757 mmHg 68%
    09:00 +34°C° 0 mm 2 m/s 757 mmHg 58%
    10:00 +36°C° 0 mm 3 m/s 757 mmHg 53%
    11:00 +37°C° 0 mm 4 m/s 757 mmHg 48%
    12:00 +39°C° 0 mm 5 m/s 756 mmHg 46%
    13:00 +39°C° 0 mm 5 m/s 756 mmHg 48%
    14:00 +37°C° 0 mm 5 m/s 755 mmHg 49%
    15:00 +37°C° 0 mm 5 m/s 755 mmHg 51%
    16:00 +35°C° 0 mm 5 m/s 755 mmHg 57%
    17:00 +34°C° 0 mm 5 m/s 755 mmHg 64%
    18:00 +32°C° 0 mm 4 m/s 754 mmHg 71%
    19:00 +32°C° 0 mm 4 m/s 755 mmHg 74%
    20:00 +30°C° 0 mm 5 m/s 755 mmHg 78%
    21:00 +30°C° 0 mm 5 m/s 756 mmHg 81%
    22:00 +30°C° 0 mm 5 m/s 756 mmHg 81%
    23:00 +30°C° 0 mm 5 m/s 756 mmHg 82%

    Amanhã, 19 Fevereiro, Terça-feira

    Tempo Temperatura Precipitação Vento Pressão Humidade
    00:00 +29°C° 0 mm 5 m/s 756 mmHg 82%
    01:00 +29°C° 0 mm 5 m/s 755 mmHg 83%
    02:00 +29°C° 0 mm 5 m/s 755 mmHg 84%
    03:00 +29°C° 0 mm 5 m/s 755 mmHg 85%
    04:00 +29°C° 0 mm 4 m/s 755 mmHg 85%
    05:00 +29°C° 0 mm 3 m/s 755 mmHg 85%
    06:00 +29°C° 0 mm 2 m/s 755 mmHg 85%
    07:00 +30°C° 0 mm 3 m/s 756 mmHg 78%
    08:00 +33°C° 0 mm 3 m/s 756 mmHg 71%
    09:00 +34°C° 0 mm 3 m/s 757 mmHg 64%
    10:00 +35°C° 0.2 mm 3 m/s 756 mmHg 60%
    11:00 +36°C° 0.2 mm 3 m/s 756 mmHg 57%
    12:00 +37°C° 0.2 mm 3 m/s 756 mmHg 53%
    13:00 +37°C° 0.3 mm 4 m/s 755 mmHg 53%
    14:00 +37°C° 0.3 mm 4 m/s 754 mmHg 53%
    15:00 +37°C° 0.3 mm 4 m/s 753 mmHg 53%
    16:00 +35°C° 0.3 mm 5 m/s 753 mmHg 60%
    17:00 +33°C° 0.3 mm 5 m/s 753 mmHg 66%
    18:00 +32°C° 0.3 mm 5 m/s 754 mmHg 72%
    19:00 +32°C° 0 mm 5 m/s 754 mmHg 74%
    20:00 +30°C° 0 mm 5 m/s 755 mmHg 76%
    21:00 +30°C° 0 mm 5 m/s 756 mmHg 78%
    22:00 +30°C° 0 mm 6 m/s 756 mmHg 79%
    23:00 +30°C° 0 mm 6 m/s 756 mmHg 79%

    Depois de amanhã, 20 Fevereiro, Quarta-feira

    Tempo Temperatura Precipitação Vento Pressão Humidade
    00:00 +29°C° 0 mm 6 m/s 756 mmHg 80%
    01:00 +29°C° 0 mm 5 m/s 755 mmHg 81%
    02:00 +29°C° 0 mm 5 m/s 755 mmHg 82%
    03:00 +29°C° 0 mm 5 m/s 754 mmHg 83%
    04:00 +29°C° 0 mm 4 m/s 755 mmHg 83%
    05:00 +29°C° 0 mm 4 m/s 755 mmHg 83%
    06:00 +28°C° 0 mm 4 m/s 755 mmHg 84%
    07:00 +30°C° 0 mm 4 m/s 756 mmHg 76%
    08:00 +33°C° 0 mm 4 m/s 756 mmHg 68%
    09:00 +34°C° 0 mm 4 m/s 757 mmHg 60%
    10:00 +36°C° 0 mm 4 m/s 757 mmHg 55%
    11:00 +37°C° 0 mm 5 m/s 756 mmHg 51%
    12:00 +39°C° 0 mm 5 m/s 756 mmHg 46%
    13:00 +39°C° 0 mm 5 m/s 755 mmHg 48%
    14:00 +38°C° 0 mm 6 m/s 754 mmHg 50%
    15:00 +38°C° 0 mm 6 m/s 753 mmHg 52%
    16:00 +35°C° 0 mm 6 m/s 754 mmHg 59%
    17:00 +33°C° 0 mm 6 m/s 754 mmHg 66%
    18:00 +32°C° 0 mm 6 m/s 754 mmHg 72%
    19:00 +30°C° 0 mm 6 m/s 755 mmHg 75%
    20:00 +30°C° 0 mm 6 m/s 756 mmHg 78%
    21:00 +30°C° 0 mm 6 m/s 756 mmHg 81%
    22:00 +30°C° 0 mm 6 m/s 756 mmHg 82%
    23:00 +30°C° 0 mm 6 m/s 756 mmHg 82%

    21 Fevereiro, Quinta-feira

    Tempo Temperatura Precipitação Vento Pressão Humidade
    00:00 +29°C° 0 mm 6 m/s 756 mmHg 83%
    01:00 +29°C° 0 mm 6 m/s 756 mmHg 83%
    02:00 +29°C° 0 mm 6 m/s 756 mmHg 83%
    03:00 +29°C° 0 mm 6 m/s 755 mmHg 83%
    04:00 +29°C° 0 mm 5 m/s 756 mmHg 83%
    05:00 +29°C° 0 mm 5 m/s 756 mmHg 83%
    06:00 +29°C° 0 mm 5 m/s 756 mmHg 83%
    07:00 +30°C° 0 mm 5 m/s 757 mmHg 76%
    08:00 +32°C° 0 mm 5 m/s 758 mmHg 70%
    09:00 +34°C° 0 mm 4 m/s 758 mmHg 64%
    10:00 +35°C° 0 mm 4 m/s 758 mmHg 57%
    11:00 +37°C° 0 mm 4 m/s 757 mmHg 51%
    12:00 +38°C° 0 mm 4 m/s 757 mmHg 45%
    13:00 +39°C° 0 mm 5 m/s 756 mmHg 46%
    14:00 +39°C° 0 mm 6 m/s 755 mmHg 47%
    15:00 +39°C° 0 mm 6 m/s 754 mmHg 48%
    16:00 +36°C° 0.1 mm 6 m/s 755 mmHg 56%
    17:00 +34°C° 0.1 mm 6 m/s 755 mmHg 65%
    18:00 +32°C° 0.1 mm 6 m/s 755 mmHg 73%
    19:00 +30°C° 0 mm 6 m/s 756 mmHg 75%
    20:00 +30°C° 0 mm 6 m/s 757 mmHg 78%
    21:00 +30°C° 0 mm 6 m/s 758 mmHg 80%
    22:00 +30°C° 0 mm 6 m/s 758 mmHg 81%
    23:00 +30°C° 0 mm 6 m/s 758 mmHg 82%

    22 Fevereiro, Sexta-feira

    Tempo Temperatura Precipitação Vento Pressão Humidade
    00:00 +29°C° 0 mm 6 m/s 758 mmHg 82%
    01:00 +29°C° 0 mm 6 m/s 757 mmHg 83%
    02:00 +29°C° 0 mm 6 m/s 757 mmHg 84%
    03:00 +29°C° 0 mm 5 m/s 756 mmHg 85%
    04:00 +29°C° 0 mm 5 m/s 756 mmHg 83%
    05:00 +29°C° 0 mm 5 m/s 756 mmHg 82%
    06:00 +29°C° 0 mm 5 m/s 757 mmHg 81%
    07:00 +30°C° 0 mm 5 m/s 757 mmHg 76%
    08:00 +32°C° 0 mm 4 m/s 758 mmHg 71%
    09:00 +33°C° 0 mm 4 m/s 758 mmHg 66%
    10:00 +34°C° 0.1 mm 4 m/s 758 mmHg 64%
    11:00 +34°C° 0.1 mm 5 m/s 757 mmHg 62%
    12:00 +35°C° 0.1 mm 5 m/s 757 mmHg 60%
    13:00 +35°C° 0 mm 5 m/s 756 mmHg 58%
    14:00 +36°C° 0 mm 5 m/s 755 mmHg 56%
    15:00 +36°C° 0 mm 6 m/s 754 mmHg 53%
    16:00 +35°C° 0 mm 6 m/s 755 mmHg 58%
    17:00 +34°C° 0 mm 6 m/s 755 mmHg 63%
    18:00 +32°C° 0 mm 5 m/s 755 mmHg 68%
    19:00 +32°C° 0 mm 5 m/s 756 mmHg 71%
    20:00 +30°C° 0 mm 5 m/s 756 mmHg 75%
    21:00 +30°C° 0 mm 6 m/s 757 mmHg 78%
    22:00 +30°C° 0 mm 6 m/s 757 mmHg 79%
    23:00 +29°C° 0 mm 6 m/s 756 mmHg 80%

    23 Fevereiro, Sábado

    Tempo Temperatura Precipitação Vento Pressão Humidade
    00:00 +29°C° 0 mm 6 m/s 756 mmHg 81%
    01:00 +29°C° 0 mm 6 m/s 756 mmHg 82%
    02:00 +29°C° 0 mm 6 m/s 755 mmHg 82%
    03:00 +29°C° 0 mm 5 m/s 755 mmHg 83%
    04:00 +29°C° 0 mm 5 m/s 755 mmHg 83%
    05:00 +29°C° 0 mm 5 m/s 756 mmHg 84%
    06:00 +29°C° 0 mm 4 m/s 756 mmHg 84%
    07:00 +30°C° 0 mm 5 m/s 757 mmHg 78%
    08:00 +32°C° 0 mm 5 m/s 757 mmHg 73%
    09:00 +33°C° 0 mm 5 m/s 758 mmHg 67%
    10:00 +33°C° 0.1 mm 5 m/s 757 mmHg 66%
    11:00 +33°C° 0.1 mm 5 m/s 757 mmHg 65%
    12:00 +33°C° 0.1 mm 5 m/s 756 mmHg 64%
    13:00 +34°C° 0 mm 5 m/s 755 mmHg 61%
    14:00 +35°C° 0 mm 5 m/s 755 mmHg 57%
    15:00 +36°C° 0 mm 5 m/s 754 mmHg 54%
    16:00 +35°C° 0 mm 5 m/s 754 mmHg 58%
    17:00 +34°C° 0 mm 6 m/s 754 mmHg 63%
    18:00 +33°C° 0 mm 6 m/s 754 mmHg 67%
    19:00 +32°C° 0 mm 6 m/s 755 mmHg 70%
    20:00 +32°C° 0 mm 6 m/s 755 mmHg 73%
    21:00 +30°C° 0 mm 5 m/s 756 mmHg 76%
    22:00 +30°C° 0 mm 5 m/s 756 mmHg 77%
    23:00 +30°C° 0 mm 6 m/s 755 mmHg 77%
    Mostrar mais